Location: North Bay Shore
(40.7362°N, 73.2626°W)
Time: 09:07:08
(UTC+00:00)

Helios 1A Rocket - Pass Details

Date: 29 October 2020
Orbit: 562 x 587 km, 98.3° (Epoch: 23 November)

Event Time Altitude Azimuth Distance (km) Brightness Sun altitude
Rises 23:35:27 0° 175° (S) 2,793 6.4 -20.0°
Reaches altitude 10° 23:37:38 10° 179° (S) 1,895 5.5 -20.5°
Maximum altitude 23:41:40 57° 259° (WSW) 686 3.5 -21.2°
Drops below altitude 10° 23:45:43 10° 338° (NNW) 1,896 5.8 -22.0°
Sets 23:47:54 0° 343° (NNW) 2,795 6.7 -22.4°
